SCP
-0 -0 0 0 0 0 0 0 0 0 0 0 0 0 0 0 0 0 0 0 0 -0 -0 -0 0 0 0
0 0 0 0 0 0 0 0 0 0 0 0 0 0 0 0 0 0 0 0 0 0 0 0 0 0 0
0 0 0 0 0 0 0 0 0 0 0 0 0 0 0 0 0 0 0 0 0 0 0 0 0 0 0
0 0 0 0 0 0 0 0 0 0 0 0 0 0 0 0 0 0 0 0 0 0 0 0 0 0 0
0 0 0 0 0 0 0 0 0 0 0 0 0 0 0 0 0 0 0 0 0 0 0 0 0 0 0
0 0 0 0 0 0 0 0 0 0 0 0 0 0 0 0 0 0 0 0 0 0 0 0 0 0 0
0 0 0 0 0 0 0 0 0 0 0 0 0 0 0 0 0 0 0 0 0 0 0 0 0 0 0
0 0 0 0 0 0 0 0 0 0 0 0 0 0 0 0 0 0 0 0 0 0 0 0 0 0 0
0 0 0 0 0 0 0 0 0 0 0 0 0 0 0 0 0 0 0 0 0 0 0 0 0 0 0
0 0 0 0 0 0 0 0 0 0 0 0 0 0 0 0 0 0 0 0 0 0 0 0 0 0 0
0 0 0 0 0 0 0 0 0 0 0 0 0 0 0 0 0 0 0 0 0 0 0 0 0 0 0
0 0 0 0 0 0 0 0 0 0 0 0 0 0 0 0 0 0 0 0 0 0 0 0 0 0 0
0 0 0 0 0 0 0 0 0 0 0 0 0 0 0 0 0 0 0 0 0 0 0 0 0 0 0
0 0 0 0 0 0 0 0 0 0 0 0 0 0 0 0 0 0 0 0 0 0 0 0 0 0 0
0 0 0 0 0 0 0 0 0 0 0 0 0 0 0 0 0 0 0 0 0 0 0 0 0 0 0
0 0 0 0 0 0 0 0 0 0 0 0 0 0 0 0 0 0 0 0 0 0 0 0 0 0 0
Wind_Speed_500mb
46 45 46 45 44 45 39 34 28 25 23 20 18 16 15 13 11 9 6 4 2 4 5 6 8 9 10
48 48 48 45 46 43 41 35 29 26 24 21 18 16 15 14 12 10 8 5 3 3 4 5 6 8 9
52 53 51 51 49 46 43 40 34 31 27 24 23 21 19 16 13 11 8 6 6 6 7 8 8 9 9
56 57 56 55 53 50 49 44 38 36 31 29 27 24 22 19 17 14 10 8 8 8 9 10 12 13 13
59 61 62 61 59 57 54 49 45 44 41 36 32 28 26 23 19 15 11 8 8 9 10 12 14 15 16
62 65 67 68 66 64 60 56 53 53 48 43 39 35 31 26 21 17 14 11 9 10 13 16 17 16 16
68 70 72 73 72 68 66 62 60 58 54 49 45 42 38 33 28 23 19 15 11 10 13 16 18 18 19
73 75 78 78 76 74 73 70 66 63 60 57 52 49 44 39 35 29 25 18 12 11 15 18 19 19 20
79 79 81 82 81 81 79 76 73 70 68 65 60 57 51 45 40 35 29 21 15 13 15 18 20 21 21
82 85 85 86 86 87 85 83 82 78 74 71 68 62 58 53 47 42 36 28 22 16 15 16 19 22 22
81 89 90 90 90 91 90 89 89 84 80 78 73 67 64 60 55 50 43 35 27 20 16 14 18 21 20
77 89 95 95 96 98 96 94 92 89 86 82 78 75 73 69 63 58 49 40 32 27 20 15 15 17 18
79 89 98 101 102 104 102 99 95 93 90 89 86 84 80 75 68 60 53 49 44 35 24 15 12 14 13
71 84 96 99 105 105 104 104 100 98 95 94 92 89 84 80 74 69 62 58 52 42 29 20 12 15 24
68 79 90 97 97 103 109 108 105 102 99 97 93 91 88 83 80 73 69 63 57 49 40 27 12 14 18
68 80 87 93 96 99 103 100 103 102 101 101 98 95 92 87 83 77 72 66 64 58 47 41 34 27 18
Wind_Direction_500mb
220 220 222 224 228 233 239 240 233 229 225 219 220 219 222 218 207 200 206 216 259 297 309 311 311 313 308
225 225 228 228 232 236 239 238 233 226 218 215 220 217 208 200 196 193 193 197 229 276 319 327 326 319 314
227 228 230 231 234 234 234 234 232 225 218 216 217 214 211 204 202 210 226 255 279 302 321 334 334 331 322
227 228 229 232 234 232 230 232 229 224 221 220 220 216 212 207 210 219 232 255 281 300 313 320 327 330 323
230 229 229 231 232 231 230 231 225 222 222 223 222 220 217 214 220 230 241 255 277 301 318 326 330 329 326
234 232 232 232 233 233 232 229 226 224 224 223 223 221 221 221 225 229 236 251 275 305 322 327 328 328 324
238 236 233 233 234 235 234 232 229 228 227 226 223 223 222 223 224 225 230 240 261 297 321 328 327 326 324
240 238 237 235 236 234 234 233 231 230 230 228 226 226 226 225 224 224 225 233 256 299 320 326 326 323 322
240 238 237 237 236 236 235 233 232 231 230 228 226 226 226 226 224 225 228 234 249 281 304 316 319 316 314
240 239 237 236 235 235 234 233 232 231 230 229 227 226 226 226 225 224 225 228 234 254 283 306 313 311 308
240 238 237 238 236 236 234 233 232 231 231 229 227 226 227 227 225 224 225 224 231 246 266 293 308 309 301
239 235 235 236 236 235 234 233 232 231 230 228 227 227 227 226 225 224 223 223 227 232 246 269 294 295 282
236 231 231 233 233 233 233 232 232 231 230 228 227 227 227 227 228 226 223 223 223 224 229 241 266 272 244
236 235 232 232 232 233 233 231 228 228 228 229 228 228 228 227 224 224 224 223 222 222 222 224 236 243 245
242 233 231 233 235 234 232 229 228 226 227 228 229 230 231 229 229 227 225 225 227 227 226 221 204 219 205
253 245 236 233 233 236 235 233 230 227 227 227 228 229 230 231 229 229 229 227 228 229 227 231 239 240 211
Wind_Speed_850mb
46 45 46 45 44 45 39 34 28 25 23 20 18 16 15 13 11 9 6 4 2 4 5 6 8 9 10
48 48 48 45 46 43 41 35 29 26 24 21 18 16 15 14 12 10 8 5 3 3 4 5 6 8 9
52 53 51 51 49 46 43 40 34 31 27 24 23 21 19 16 13 11 8 6 6 6 7 8 8 9 9
56 57 56 55 53 50 49 44 38 36 31 29 27 24 22 19 17 14 10 8 8 8 9 10 12 13 13
59 61 62 61 59 57 54 49 45 44 41 36 32 28 26 23 19 15 11 8 8 9 10 12 14 15 16
62 65 67 68 66 64 60 56 53 53 48 43 39 35 31 26 21 17 14 11 9 10 13 16 17 16 16
68 70 72 73 72 68 66 62 60 58 54 49 45 42 38 33 28 23 19 15 11 10 13 16 18 18 19
73 75 78 78 76 74 73 70 66 63 60 57 52 49 44 39 35 29 25 18 12 11 15 18 19 19 20
79 79 81 82 81 81 79 76 73 70 68 65 60 57 51 45 40 35 29 21 15 13 15 18 20 21 21
82 85 85 86 86 87 85 83 82 78 74 71 68 62 58 53 47 42 36 28 22 16 15 16 19 22 22
81 89 90 90 90 91 90 89 89 84 80 78 73 67 64 60 55 50 43 35 27 20 16 14 18 21 20
77 89 95 95 96 98 96 94 92 89 86 82 78 75 73 69 63 58 49 40 32 27 20 15 15 17 18
79 89 98 101 102 104 102 99 95 93 90 89 86 84 80 75 68 60 53 49 44 35 24 15 12 14 13
71 84 96 99 105 105 104 104 100 98 95 94 92 89 84 80 74 69 62 58 52 42 29 20 12 15 24
68 79 90 97 97 103 109 108 105 102 99 97 93 91 88 83 80 73 69 63 57 49 40 27 12 14 18
68 80 87 93 96 99 103 100 103 102 101 101 98 95 92 87 83 77 72 66 64 58 47 41 34 27 18
Wind_Direction_850mb
220 220 222 224 228 233 239 240 233 229 225 219 220 219 222 218 207 200 206 216 259 297 309 311 311 313 308
225 225 228 228 232 236 239 238 233 226 218 215 220 217 208 200 196 193 193 197 229 276 319 327 326 319 314
227 228 230 231 234 234 234 234 232 225 218 216 217 214 211 204 202 210 226 255 279 302 321 334 334 331 322
227 228 229 232 234 232 230 232 229 224 221 220 220 216 212 207 210 219 232 255 281 300 313 320 327 330 323
230 229 229 231 232 231 230 231 225 222 222 223 222 220 217 214 220 230 241 255 277 301 318 326 330 329 326
234 232 232 232 233 233 232 229 226 224 224 223 223 221 221 221 225 229 236 251 275 305 322 327 328 328 324
238 236 233 233 234 235 234 232 229 228 227 226 223 223 222 223 224 225 230 240 261 297 321 328 327 326 324
240 238 237 235 236 234 234 233 231 230 230 228 226 226 226 225 224 224 225 233 256 299 320 326 326 323 322
240 238 237 237 236 236 235 233 232 231 230 228 226 226 226 226 224 225 228 234 249 281 304 316 319 316 314
240 239 237 236 235 235 234 233 232 231 230 229 227 226 226 226 225 224 225 228 234 254 283 306 313 311 308
240 238 237 238 236 236 234 233 232 231 231 229 227 226 227 227 225 224 225 224 231 246 266 293 308 309 301
239 235 235 236 236 235 234 233 232 231 230 228 227 227 227 226 225 224 223 223 227 232 246 269 294 295 282
236 231 231 233 233 233 233 232 232 231 230 228 227 227 227 227 228 226 223 223 223 224 229 241 266 272 244
236 235 232 232 232 233 233 231 228 228 228 229 228 228 228 227 224 224 224 223 222 222 222 224 236 243 245
242 233 231 233 235 234 232 229 228 226 227 228 229 230 231 229 229 227 225 225 227 227 226 221 204 219 205
253 245 236 233 233 236 235 233 230 227 227 227 228 229 230 231 229 229 229 227 228 229 227 231 239 240 211